Regional Weather Roundup
Issued by NWS Albany, NY

Home | Current Version | Previous Version | Text Only | Print | Product List | Glossary On
Versions: 1 2 3 4 5 6 7 8 9 10 11 12 13 14 15 16 17 18 19 20 21 22 23 24 25 26 27 28 29 30 31 32 33 34 35 36 37 38 39 40 41 42 43 44 45 46 47 48 49 50
000
ASUS41 KALY 280910
RWRALY

NEW YORK STATE HOURLY WEATHER ROUNDUP
NATIONAL WEATHER SERVICE ALBANY NY
500 AM EDT SAT MAY 28 2016

NOTE: "FAIR" INDICATES FEW OR NO CLOUDS BELOW 12,000 FEET WITH NO
SIGNIFICANT WEATHER AND/OR NO OBSTRUCTIONS TO VISIBILITY.

NYZ032-033-038>043-046>054-057>066-NYZ062>081-082-084-281000-
EAST


CITY           SKY/WX    TMP DP  RH WIND       PRES   REMARKS
ALBANY         MOCLDY    68  64  87 CALM      30.06R
GLENS FALLS    MOCLDY    62  59  90 CALM      30.05R FOG
POUGHKEEPSIE   CLOUDY    67  63  87 CALM      30.06R
NEWBURGH       PTCLDY    70  68  94 CALM      30.08
MONTGOMERY     PTCLDY    64  64 100 CALM      30.07R FOG
WHITE PLAINS   PTCLDY    69  62  78 CALM      30.09R
ISLIP          CLOUDY    65  58  78 SW8       30.10R
NEW YORK CITY  PTCLDY    74  63  68 SW8       30.08R
CENTRAL PARK   CLOUDY    71  58  63 VRB5      30.11S
$$

NYZ005>009-017-018-044>046-055-056-281000-
CENTRAL


CITY           SKY/WX    TMP DP  RH WIND       PRES   REMARKS
FULTON         FOG       63  61  93 CALM      30.05R VSB 1/4
SYRACUSE       PTCLDY    63  63 100 SE5       30.05R
ROME           CLEAR     62  61  96 CALM      30.07S
ELMIRA         FOG       59  57  93 CALM      30.09S VSB 1/4
BINGHAMTON     CLEAR     65  63  93 W6        30.11R
MONTICELLO     PTCLDY    63  63 100 CALM      30.13R
$$

NYZ026>034-041>043-087-281000-
NORTH


CITY           SKY/WX    TMP DP  RH WIND       PRES   REMARKS
WATERTOWN      FOG       62  61  96 CALM      30.05R VSB<1/4
FORT DRUM      NOT AVBL
MASSENA        CLEAR     63  62  97 SW7       30.04R FOG
SARANAC LAKE   FOG       55  53  93 CALM      30.09R VSB 1/4
PLATTSBURGH    PTCLDY    66  63  90 CALM      30.01R
$$

NYZ001>004-010>016-019>021-085-281000-
WEST


CITY           SKY/WX    TMP DP  RH WIND       PRES   REMARKS
NIAGARA FALLS  CLEAR     64  58  80 CALM      30.04S
BUFFALO        PTCLDY    66  61  84 SE6       30.05R
DUNKIRK        PTCLDY    63  61  93 CALM      30.05S
JAMESTOWN      CLEAR     63  59  88 S5        30.12R
WELLSVILLE     CLOUDY    62  60  93 CALM      30.16R
ROCHESTER      CLEAR     66  63  90 SW5       30.07R
PENN YAN       CLEAR     66  63  90 SW5       30.09R
$$

             KEY
       WCI = WIND CHILL INDEX
       VSB = VISIBILITY
       HX  = HEAT INDEX
$$



USA.gov is the U.S. government's official web portal to all federal, state and local government web resources and services.